Starlink 35192

operational
NORAD ID: 65933 Int'l Des: 2025-225 Owner: SPXS Country: US Constellation: starlink
LEOCIRCULAR

About Starlink 35192

Description loading...

Live Position

Loading 3D Globe...

Upcoming Passes

Altitude History

Altitude vs Time

uPlot chart will show altitude changes over time

Two-Line Element Set

1 65933U 25225Z 26062.61306990 .00016834 00000-0 57922-3 0 9992
2 65933 53.1608 194.1942 0001322 72.2157 287.8988 15.30199017 23475
Epoch: Mar 3, 2026 • Age: 35 hours

Current Status

Altitude 494.5 km
Velocity 7.62 km/s
Sub-Earth Point -53.04°S, 129.92°E
Launch Date Oct 8, 2025
Age 0.4 years
Type internet

Technical Details

Classification Payload
Mass 575.00 kg
Dry Mass 530.00 kg
Total Mass 575.00 kg
Length 0.30 m
Diameter 4.10 m
Span 29.00 m
Shape Box + pan
Manufacturer SPXS
Bus Type Starlink V2MO
Phase Status In Orbit
Owner/State SPXS/US

Large Constellations

Loading constellations...